Wind_Speed
62 57 62 63 58 59 55 55 52 50 47 42 38 40 37 37 41 34 35 36 37 37 34 34 36 37 43 44 50 46 48 42 45 43 46 49 45 53 50 47 50 51 49 60 61 58 57 58 60
67 64 63 61 66 64 57 55 52 48 52 48 45 44 40 43 44 41 39 38 42 43 42 44 43 48 48 48 54 51 45 45 46 44 46 47 52 55 51 54 56 57 58 66 59 58 58 61 63
68 66 58 63 68 69 62 59 57 55 51 46 51 51 50 47 46 41 42 40 42 45 48 47 49 49 52 55 53 48 44 44 40 44 47 47 61 60 61 61 58 63 64 61 58 60 64 64 64
70 72 67 66 64 64 67 63 61 59 51 51 54 49 51 55 50 45 45 42 48 50 50 50 55 54 61 60 53 47 47 45 44 43 50 62 61 62 63 67 66 67 64 61 64 68 69 68 64
76 69 70 69 65 65 63 60 61 66 64 59 54 55 63 62 51 50 47 47 49 52 54 52 56 60 62 58 52 52 49 47 45 59 63 59 60 62 67 67 67 63 62 68 72 77 74 72 68
77 62 65 72 77 70 62 67 70 59 60 64 65 67 62 62 65 55 51 51 53 54 56 58 58 60 59 53 57 61 54 49 58 68 65 62 64 68 68 68 65 62 69 74 79 77 75 69 68
79 83 65 71 74 76 74 69 67 70 67 63 65 65 62 65 63 56 55 57 56 59 61 61 62 57 58 58 64 61 60 57 65 64 64 66 68 72 67 67 67 71 75 77 80 78 76 72 68
78 78 72 72 76 83 83 76 74 68 64 63 65 63 58 58 58 57 55 58 61 61 63 58 58 58 57 57 61 62 63 67 67 65 68 68 74 70 70 71 71 73 74 80 80 74 74 72 70
84 81 74 73 75 72 78 82 76 76 73 71 68 63 63 65 61 60 61 63 63 66 57 56 58 54 54 62 64 63 66 66 66 68 73 71 73 74 74 72 72 77 78 78 74 74 71 68 62
95 86 84 82 85 85 78 75 77 80 76 70 70 70 68 69 66 65 62 63 64 60 54 49 52 54 64 64 62 68 68 69 69 74 75 78 74 73 72 78 79 80 81 77 73 71 70 66 59
94 87 86 88 86 85 79 75 74 67 62 62 65 67 67 66 65 64 62 62 56 55 55 55 55 64 60 66 67 67 71 71 76 77 79 75 74 75 80 79 81 79 78 77 72 70 71 60 57
100 93 94 93 95 93 91 81 71 73 68 61 60 63 66 65 67 65 64 59 59 58 57 65 63 61 61 62 67 69 75 78 75 81 77 75 77 77 77 77 77 81 79 74 71 72 65 61 57
96 95 95 101 104 101 101 91 86 73 74 73 67 62 61 63 63 63 63 56 54 59 62 60 61 66 66 72 76 74 78 77 78 78 76 75 72 74 78 80 81 82 77 70 69 67 64 58 53
102 100 98 100 103 104 107 100 101 83 84 83 81 72 63 63 64 61 61 62 63 67 67 72 73 72 74 77 79 75 77 77 77 78 74 73 77 82 81 80 81 76 72 69 67 67 58 55 53
112 110 106 102 101 102 104 102 93 87 87 92 86 83 84 82 79 73 70 69 80 81 77 79 81 84 83 81 79 73 74 72 73 76 78 81 83 81 76 78 73 70 68 65 61 61 58 59 55
107 115 112 106 109 105 111 100 86 93 96 92 89 89 88 88 87 86 85 85 81 81 83 85 83 82 79 75 74 69 72 76 78 81 81 81 80 75 73 69 69 67 65 56 58 57 59 58 56
109 110 107 106 109 115 118 101 99 101 99 92 94 95 91 84 84 85 87 87 89 87 86 81 79 77 70 70 65 68 75 79 80 82 85 80 75 72 67 67 62 58 53 50 55 57 55 57 63
117 113 114 111 109 113 112 94 100 100 103 100 98 93 90 89 85 88 86 84 79 77 75 74 72 69 67 63 66 75 78 77 79 82 79 73 70 67 65 62 55 50 50 49 52 53 54 61 66
125 123 119 116 114 111 109 100 99 97 94 93 92 93 90 85 81 78 76 75 74 72 70 68 65 64 62 66 72 77 80 79 81 74 71 66 65 65 60 55 45 41 43 45 47 48 56 60 58
128 122 121 124 120 116 110 104 99 94 91 88 87 86 84 79 77 73 71 72 73 71 67 62 58 58 64 71 78 80 80 78 73 68 65 65 63 57 54 43 43 43 48 44 49 53 54 52 49
126 125 121 120 127 121 111 104 98 95 92 90 86 86 81 74 73 72 70 66 66 60 56 55 59 66 71 77 81 83 75 70 68 66 65 61 53 54 51 35 38 39 45 48 47 52 46 45 44
129 126 122 119 127 121 115 98 99 96 95 93 89 87 82 78 74 71 67 60 59 59 60 64 69 76 78 78 75 70 66 67 67 63 58 54 53 50 34 36 42 45 46 49 47 41 43 41 40
123 125 124 122 119 117 114 103 103 105 103 100 93 90 85 80 75 70 67 66 62 63 65 70 72 76 79 72 66 63 64 65 62 55 53 52 42 36 36 38 39 44 47 41 36 39 39 36 38
122 125 122 122 120 112 105 100 95 100 97 99 100 95 91 84 77 76 73 70 72 71 71 72 72 73 67 61 60 62 62 59 51 51 46 39 32 33 36 39 41 41 37 34 36 36 33 33 32
110 114 118 121 116 103 103 100 88 94 99 96 97 96 94 90 87 86 83 83 77 76 78 79 74 64 59 58 58 57 55 47 45 37 34 33 34 39 38 40 38 33 30 34 33 28 28 25 24
97 98 106 107 109 102 103 86 84 85 88 89 90 91 88 82 76 76 75 77 74 70 70 69 63 59 56 55 51 50 41 39 33 29 32 36 37 36 38 35 30 27 29 32 25 23 24 19 16
88 88 91 96 96 98 95 91 84 76 78 84 82 77 72 65 64 66 66 65 64 62 56 53 52 49 47 47 43 37 34 29 27 30 35 35 35 38 33 27 23 24 30 24 19 21 12 13 15
72 78 85 81 82 85 85 86 83 77 77 75 66 65 61 58 56 57 55 55 54 52 49 45 43 41 41 38 34 30 27 26 29 32 33 33 35 31 25 23 18 24 26 18 11 8 10 13 21
60 63 75 71 71 77 82 82 82 76 70 57 52 52 50 50 46 44 43 43 42 39 36 36 36 35 33 27 27 25 26 27 29 29 31 33 31 25 24 18 19 23 18 5 3 4 8 17 21
51 56 59 65 68 72 79 79 76 70 68 56 49 45 43 42 39 37 35 31 32 31 31 31 28 30 23 20 23 24 26 28 28 30 30 29 24 23 21 16 17 20 7 3 3 3 7 9 12
Wind_Direction
244 246 252 248 247 247 250 249 251 257 260 257 259 258 260 263 267 265 270 272 269 273 281 285 287 284 294 302 303 304 311 311 310 309 306 301 296 308 305 303 305 302 299 307 309 310 307 306 307
251 245 248 251 253 252 253 254 259 264 264 260 260 254 252 257 268 270 279 279 271 274 284 288 290 296 298 297 299 302 305 307 311 310 304 297 311 306 302 302 303 300 301 308 306 306 305 305 304
246 244 247 253 254 255 256 259 261 257 264 267 261 257 254 261 267 266 275 276 276 279 291 294 293 292 297 300 296 298 298 311 307 307 304 307 310 304 301 305 304 306 307 307 305 305 305 305 305
249 252 250 252 251 259 252 256 258 258 257 254 253 261 270 268 262 269 268 269 275 280 287 289 290 296 300 298 290 295 303 308 301 301 304 311 308 308 307 307 307 307 307 305 305 307 307 306 308
239 246 252 249 253 256 253 255 255 255 251 256 252 253 254 259 260 264 265 276 276 279 283 285 299 299 298 292 291 297 302 302 303 306 311 309 307 306 309 306 306 304 302 305 308 309 308 308 308
239 239 249 248 249 249 250 251 247 252 254 254 261 264 258 261 265 265 264 272 271 275 281 290 296 297 297 289 293 295 295 296 301 309 311 308 306 307 308 307 302 298 300 305 308 309 311 309 307
240 239 236 247 249 250 250 249 251 253 255 256 259 260 263 267 263 260 264 273 271 279 281 288 293 293 292 293 293 291 295 298 307 310 308 308 309 310 308 305 301 300 304 305 307 307 309 308 307
237 239 235 240 246 248 249 250 251 250 255 255 254 258 258 260 263 264 268 271 274 282 286 286 288 294 291 287 291 291 298 302 309 307 306 305 307 306 303 300 296 300 303 306 308 309 307 306 306
238 236 240 244 251 255 256 251 250 251 257 257 254 256 258 260 266 269 273 274 281 289 281 283 289 288 287 291 287 290 296 302 303 304 303 301 304 301 297 298 302 304 306 307 308 306 307 309 308
238 237 242 245 248 249 249 252 254 256 260 258 258 258 261 265 267 268 271 278 281 280 280 281 282 288 293 290 288 294 297 298 301 301 302 301 302 301 300 303 305 305 307 308 307 307 309 310 307
240 240 242 244 245 243 246 249 246 247 252 255 256 257 258 262 267 273 273 275 276 273 276 275 282 290 286 289 287 292 294 295 299 301 301 303 302 300 303 303 304 307 308 307 309 309 310 308 306
241 242 241 242 244 245 247 244 242 242 246 250 253 255 258 263 265 270 273 270 268 270 277 286 289 289 288 289 288 293 294 296 298 300 303 303 302 303 303 306 307 308 308 307 309 309 308 306 303
242 243 241 242 243 244 247 247 248 245 249 252 253 254 256 254 259 263 263 265 270 275 285 285 287 288 287 289 292 293 295 297 300 301 302 301 302 302 304 307 309 307 305 310 309 306 306 305 303
245 243 241 242 244 246 247 247 249 254 256 256 257 256 254 257 259 260 265 272 275 279 281 283 286 290 290 294 293 295 297 298 301 300 301 300 301 304 306 307 307 306 309 309 305 305 305 302 299
243 242 243 243 245 247 250 248 250 257 256 254 256 260 260 260 262 263 264 269 274 278 281 283 285 286 289 291 293 295 298 299 301 303 301 302 303 305 306 308 306 308 306 302 298 304 307 301 300
243 244 243 246 245 246 249 250 252 254 256 258 259 260 262 264 268 270 271 273 278 281 283 285 287 287 289 292 294 298 299 296 299 301 302 303 306 306 307 307 309 306 301 299 297 303 302 297 300
244 243 246 244 246 248 249 248 249 252 252 255 259 260 263 266 270 271 270 273 278 279 280 283 285 288 290 292 295 297 300 299 298 300 302 304 305 306 306 309 303 301 303 300 296 295 294 293 297
244 244 244 242 246 247 249 248 249 252 254 252 254 259 264 266 266 267 270 274 275 278 280 282 285 287 289 290 293 299 303 300 301 302 302 304 304 306 309 306 303 294 293 290 290 290 289 290 295
244 243 243 244 244 245 247 245 249 249 252 256 258 260 261 262 264 266 269 270 273 276 277 282 284 285 286 288 295 301 301 300 304 303 302 302 305 308 304 304 297 292 291 291 292 291 293 294 297
245 244 241 242 245 245 246 246 246 250 253 255 258 259 260 263 263 265 266 268 272 275 279 281 282 287 288 291 295 299 301 301 301 302 302 305 307 302 304 300 297 280 281 290 292 293 295 296 302
246 245 244 242 242 245 246 246 248 251 254 256 258 258 260 261 261 263 265 272 274 277 277 281 285 286 289 294 295 297 298 298 299 302 305 306 303 302 303 290 281 280 288 293 296 298 299 303 305
246 247 246 245 243 244 247 246 247 250 254 256 259 259 258 259 260 261 265 271 274 276 278 279 284 288 293 294 294 295 293 295 300 302 305 303 301 300 293 283 285 292 297 296 298 300 304 307 309
244 245 246 246 245 245 247 248 248 251 251 253 249 250 254 257 263 266 269 271 275 274 278 283 286 289 290 291 293 289 292 297 299 305 301 301 301 296 291 290 295 296 295 299 302 305 308 310 315
245 243 243 244 245 244 245 247 244 249 247 246 247 251 253 255 259 266 268 272 272 275 278 282 285 287 286 289 287 289 293 295 303 298 300 302 298 296 297 299 298 298 300 305 309 310 311 314 315
243 241 242 243 245 245 244 245 243 244 247 248 248 250 252 256 262 267 267 268 272 275 275 278 284 282 283 285 287 288 292 299 295 301 304 300 296 297 299 300 300 301 304 311 313 310 314 320 319
242 241 241 240 242 243 244 242 243 242 244 248 249 250 254 259 260 262 262 263 269 269 271 277 278 280 281 281 283 288 295 292 297 301 299 296 297 297 301 301 302 300 314 315 314 312 318 318 325
239 240 239 238 238 237 239 239 240 242 241 241 245 251 255 257 257 258 260 264 264 266 269 271 275 274 276 279 285 291 287 291 294 294 295 298 299 303 302 301 299 310 317 317 319 311 323 335 329
234 233 235 235 233 234 234 233 234 237 238 236 243 248 252 254 254 258 259 259 259 262 266 268 268 271 275 281 287 284 285 288 294 294 294 299 303 301 299 300 301 309 320 326 320 330 344 8 355
231 228 228 227 225 226 228 227 226 230 235 240 238 241 243 246 249 251 249 250 255 256 257 259 263 269 274 284 281 279 287 298 295 295 300 301 300 300 299 290 299 317 322 327 304 344 19 12 338
224 223 219 218 219 220 221 222 224 224 226 234 237 237 238 241 241 240 241 239 242 246 252 257 261 267 277 282 276 284 288 297 298 299 299 299 297 297 287 278 309 319 342 153 81 20 337 349 303
Height
10907 10911 10916 10922 10926 10928 10933 10935 10937 10941 10942 10944 10946 10947 10946 10947 10949 10949 10949 10946 10944 10943 10943 10945 10946 10946 10945 10943 10941 10940 10939 10939 10939 10936 10931 10929 10926 10923 10921 10918 10914 10909 10906 10904 10899 10895 10891 10886 10883
10898 10902 10907 10913 10916 10919 10927 10927 10931 10935 10936 10938 10939 10940 10940 10940 10943 10944 10945 10942 10939 10937 10937 10937 10938 10938 10938 10937 10935 10935 10933 10932 10929 10928 10925 10922 10919 10915 10911 10907 10904 10902 10898 10893 10889 10886 10882 10878 10873
10889 10893 10898 10904 10905 10908 10917 10920 10924 10928 10931 10932 10931 10931 10931 10932 10936 10938 10939 10936 10934 10931 10930 10931 10931 10931 10931 10929 10929 10927 10926 10925 10923 10919 10917 10915 10912 10907 10903 10898 10894 10889 10884 10880 10877 10874 10870 10865 10860
10880 10885 10891 10895 10891 10899 10907 10911 10914 10919 10921 10922 10924 10922 10921 10925 10929 10932 10933 10930 10927 10924 10924 10925 10925 10922 10921 10919 10919 10918 10917 10916 10914 10912 10911 10907 10902 10897 10890 10886 10881 10876 10869 10865 10862 10857 10853 10847 10843
10868 10875 10883 10883 10881 10886 10893 10899 10904 10907 10910 10915 10914 10912 10912 10916 10921 10923 10925 10924 10921 10917 10917 10918 10918 10914 10911 10908 10908 10908 10908 10906 10905 10904 10900 10897 10892 10889 10882 10874 10869 10862 10856 10850 10845 10841 10835 10829 10826
10859 10864 10874 10872 10869 10871 10882 10886 10891 10896 10899 10904 10906 10902 10903 10908 10912 10917 10918 10918 10916 10911 10910 10911 10910 10906 10902 10899 10896 10896 10898 10899 10896 10894 10890 10886 10882 10877 10872 10864 10858 10852 10846 10841 10833 10827 10821 10816 10811
10845 10852 10860 10862 10858 10863 10866 10877 10879 10886 10889 10895 10895 10890 10894 10897 10901 10906 10909 10909 10907 10904 10903 10902 10900 10898 10895 10891 10886 10882 10884 10885 10884 10881 10878 10873 10867 10862 10858 10852 10846 10840 10835 10828 10822 10813 10806 10801 10797
10832 10841 10849 10853 10847 10848 10850 10862 10868 10874 10877 10882 10883 10881 10885 10885 10893 10897 10899 10899 10899 10898 10895 10892 10890 10891 10888 10884 10877 10873 10870 10870 10870 10866 10862 10859 10853 10849 10844 10840 10834 10829 10823 10815 10806 10798 10791 10787 10781
10817 10834 10842 10841 10836 10833 10829 10843 10856 10864 10866 10871 10874 10875 10875 10876 10883 10887 10888 10888 10890 10890 10888 10883 10882 10883 10881 10879 10873 10867 10864 10865 10863 10858 10852 10848 10844 10838 10831 10827 10820 10813 10807 10801 10793 10785 10778 10773 10767
10803 10823 10830 10823 10819 10816 10816 10828 10840 10851 10856 10860 10862 10868 10866 10866 10872 10876 10879 10878 10878 10880 10878 10877 10874 10873 10869 10866 10864 10860 10856 10856 10853 10850 10843 10838 10832 10825 10819 10812 10805 10798 10794 10787 10779 10772 10765 10759 10753
10789 10811 10805 10806 10804 10797 10802 10819 10830 10838 10846 10847 10851 10854 10853 10858 10858 10864 10866 10868 10869 10869 10868 10868 10869 10867 10863 10860 10856 10853 10848 10845 10842 10838 10833 10826 10819 10812 10805 10796 10791 10783 10778 10770 10764 10757 10751 10745 10739
10768 10786 10791 10786 10785 10785 10787 10798 10821 10828 10833 10837 10842 10844 10844 10847 10848 10851 10855 10858 10857 10856 10857 10859 10859 10855 10852 10851 10847 10844 10838 10834 10830 10825 10820 10814 10806 10797 10789 10784 10779 10769 10763 10757 10749 10742 10737 10731 10726
10753 10766 10770 10766 10767 10771 10769 10794 10797 10820 10823 10825 10830 10835 10834 10834 10836 10840 10845 10847 10847 10848 10847 10846 10847 10844 10844 10841 10837 10834 10827 10822 10817 10811 10807 10800 10793 10785 10777 10771 10763 10754 10746 10741 10735 10727 10723 10719 10714
10733 10736 10747 10749 10753 10754 10759 10776 10776 10811 10809 10812 10816 10820 10821 10825 10827 10831 10832 10836 10838 10838 10837 10837 10835 10834 10832 10829 10825 10822 10816 10811 10804 10797 10794 10789 10781 10773 10765 10755 10747 10738 10731 10726 10720 10713 10710 10706 10703
10707 10715 10722 10734 10739 10744 10737 10751 10795 10788 10788 10793 10800 10805 10808 10816 10816 10820 10822 10825 10824 10826 10828 10826 10826 10823 10821 10816 10813 10809 10804 10796 10791 10784 10780 10776 10767 10760 10752 10742 10732 10724 10717 10712 10705 10701 10699 10694 10689
10684 10688 10703 10724 10721 10728 10711 10746 10783 10765 10764 10777 10785 10787 10792 10802 10807 10809 10810 10810 10811 10812 10813 10812 10812 10810 10808 10805 10802 10797 10791 10783 10778 10771 10766 10762 10753 10745 10739 10729 10719 10711 10705 10701 10695 10692 10689 10683 10679
10661 10677 10688 10692 10701 10694 10693 10741 10751 10741 10748 10766 10767 10774 10783 10791 10794 10794 10791 10795 10798 10798 10799 10800 10798 10797 10795 10793 10789 10785 10779 10771 10765 10758 10751 10747 10739 10732 10725 10717 10709 10700 10696 10691 10687 10684 10680 10674 10669
10637 10646 10655 10669 10674 10674 10683 10729 10721 10726 10732 10751 10755 10766 10774 10777 10780 10774 10777 10781 10785 10787 10787 10786 10786 10785 10784 10782 10778 10772 10766 10759 10752 10746 10738 10733 10727 10719 10713 10706 10699 10691 10688 10684 10680 10676 10671 10667 10660
10603 10621 10632 10640 10649 10654 10672 10700 10703 10708 10720 10735 10748 10753 10756 10761 10762 10766 10765 10768 10771 10775 10775 10776 10775 10775 10774 10770 10766 10759 10751 10746 10740 10732 10726 10722 10715 10707 10701 10695 10691 10684 10680 10676 10672 10669 10664 10657 10648
10574 10590 10609 10619 10626 10637 10653 10677 10687 10699 10713 10722 10729 10735 10741 10745 10748 10751 10752 10755 10759 10763 10765 10765 10766 10765 10761 10757 10752 10746 10739 10734 10727 10721 10716 10709 10703 10696 10691 10686 10680 10676 10672 10671 10668 10661 10655 10645 10637
10547 10560 10578 10596 10603 10616 10637 10660 10676 10689 10697 10706 10717 10721 10722 10725 10729 10734 10738 10746 10749 10752 10752 10753 10754 10751 10748 10744 10739 10733 10728 10722 10717 10711 10704 10699 10692 10686 10683 10678 10671 10667 10665 10662 10656 10648 10642 10634 10628
10519 10533 10551 10566 10577 10598 10616 10647 10657 10675 10686 10693 10696 10698 10701 10706 10714 10719 10729 10736 10738 10739 10742 10740 10740 10738 10735 10730 10725 10721 10716 10711 10706 10701 10692 10687 10683 10679 10675 10668 10663 10660 10656 10650 10646 10638 10631 10626 10620
10495 10506 10523 10536 10555 10575 10605 10618 10657 10656 10673 10675 10674 10673 10683 10693 10700 10711 10717 10722 10726 10727 10728 10728 10726 10725 10721 10718 10714 10709 10706 10701 10695 10688 10681 10677 10675 10671 10668 10662 10657 10654 10648 10642 10636 10629 10623 10618 10615
10463 10478 10495 10508 10526 10555 10588 10598 10647 10636 10645 10644 10653 10664 10671 10680 10694 10701 10704 10710 10710 10713 10714 10715 10713 10712 10709 10706 10702 10698 10694 10690 10684 10678 10673 10670 10666 10662 10658 10654 10651 10644 10638 10633 10626 10621 10616 10613 10608
10430 10447 10468 10486 10506 10551 10560 10578 10627 10614 10618 10630 10636 10646 10655 10672 10685 10693 10696 10697 10694 10699 10701 10700 10701 10699 10697 10694 10692 10688 10684 10680 10674 10669 10665 10663 10659 10655 10651 10647 10641 10635 10631 10625 10619 10615 10612 10608 10603
10402 10421 10445 10468 10493 10534 10535 10570 10588 10595 10607 10609 10616 10628 10647 10667 10676 10676 10676 10677 10683 10685 10684 10689 10688 10688 10686 10685 10682 10678 10675 10670 10666 10663 10660 10656 10652 10649 10644 10638 10633 10629 10624 10618 10614 10610 10606 10604 10601
10383 10404 10429 10441 10475 10497 10521 10550 10564 10576 10585 10589 10602 10622 10641 10651 10655 10656 10660 10666 10667 10668 10672 10674 10675 10676 10676 10674 10671 10669 10665 10662 10660 10657 10653 10649 10644 10640 10635 10630 10626 10622 10618 10614 10609 10606 10605 10603 10598
10365 10383 10401 10424 10458 10482 10508 10526 10546 10557 10557 10577 10603 10615 10625 10634 10639 10644 10649 10651 10654 10657 10659 10662 10664 10665 10664 10664 10663 10660 10658 10656 10653 10650 10646 10641 10637 10632 10628 10624 10621 10618 10614 10609 10607 10605 10603 10600 10597
10350 10368 10382 10413 10441 10463 10485 10504 10522 10540 10548 10580 10595 10603 10612 10620 10628 10632 10636 10640 10644 10646 10649 10652 10654 10655 10656 10656 10655 10653 10651 10647 10645 10641 10638 10633 10629 10625 10622 10620 10618 10615 10610 10608 10606 10605 10602 10597 10598
10336 10350 10371 10400 10424 10446 10463 10486 10511 10532 10538 10569 10582 10593 10604 10611 10616 10620 10625 10630 10633 10637 10640 10643 10646 10647 10649 10648 10647 10646 10644 10641 10637 10633 10630 10626 10623 10620 10618 10616 10614 10610 10607 10607 10606 10604 10601 10599 10596